Location: Labatut
(43.5213°N, 0.0340°E)
Time: 22:24:49
(UTC+00:00)

Daily predictions for brighter satellites

Satellite Brightness Start Highest point End
(mag) Time Altitude Azimuth Time Altitude Azimuth Time Altitude Azimuth
Atlas Centaur 2 3.7 20:10:18 10° SW 20:13:28 17° S 20:17:04 10° SSE
Cosmos 1602 Rocket 4.4 20:11:55 10° SSW 20:16:16 56° W 20:20:41 10° N
CREW DRAGON DEMO-1 DEB 3.2 20:14:25 10° SSW 20:17:20 41° SE 20:20:15 10° ENE
Cosmos-2242 3.2 20:17:04 10° N 20:21:23 59° E 20:25:43 10° SSE
Cosmos 1455 2.5 20:21:58 10° NNW 20:25:48 69° W 20:29:38 10° S
Cosmos 2221 4.4 20:23:43 10° NNE 20:26:25 16° ENE 20:29:04 10° ESE
OAO 2 Rocket 4.4 20:22:25 10° WSW 20:27:00 31° S 20:31:37 10° SE
Cosmos 1315 Rocket 4.0 20:25:09 10° NNE 20:28:45 28° ENE 20:32:12 11° SE
NOSS 3-3 (A) 3.9 20:23:37 10° SSW 20:29:21 73° ESE 20:35:49 10° NE
NOSS 3-3 (C) 3.9 20:23:43 10° SSW 20:29:27 72° ESE 20:35:55 10° NE
Meteor 1-11 4.5 20:24:42 10° SSE 20:30:08 52° E 20:35:39 10° NNE
MetOp-B 4.4 20:25:01 10° SE 20:30:12 54° ENE 20:35:25 10° N
ATLAS CENTAUR R/B 1.2 20:28:13 10° NNW 20:31:53 61° NE 20:35:13 12° SE
IRIS 4.4 20:28:36 10° W 20:32:31 56° S 20:35:05 11° ESE
Geosat 4.1 20:27:59 10° SE 20:32:59 75° ENE 20:38:02 10° NNW
Gblst 52 Del rocket 4.4 20:32:20 10° WNW 20:37:55 72° NNE 20:44:02 10° ESE
SPOT 1/Viking Rocket 4.2 20:36:44 11° SE 20:41:19 40° ENE 20:46:08 10° N
Cosmos 1400 Rocket 3.1 20:41:11 10° NNW 20:45:07 66° W 20:48:58 10° S
Cosmos 1980 4.4 20:41:02 10° SSE 20:45:59 33° ESE 20:50:58 10° NE
Cosmos 2084 3.5 20:43:44 10° NW 20:48:13 88° SW 20:51:53 15° SE
ATLAS 2AS CENTAUR R/B 3.8 20:41:33 10° NNW 20:48:40 40° NE 20:55:15 10° ESE
H-2A ROCKET BODY 4.4 20:44:18 10° SW 20:48:40 21° S 20:56:53 13° SE
SPOT 3 Rocket 4.4 20:44:03 10° S 20:49:04 48° W 20:54:08 10° NNW
Lacrosse 5 rocket 4.1 20:49:12 10° NNW 20:51:09 13° N 20:53:03 10° NNE
Cosmos 1709 Rocket 4.1 20:45:26 10° S 20:51:45 90° S 20:58:10 10° N
Genesis I 3.8 20:48:27 10° S 20:52:00 35° ESE 20:55:35 10° NE
Terra 3.4 20:50:21 12° ESE 20:53:35 22° ENE 20:57:14 10° NNE
Cosmos 2219 Rocket 2.4 20:52:02 10° SSW 20:57:37 77° WNW 21:03:15 10° NNE
ERS-1 Rocket 3.6 20:56:37 15° SE 21:00:20 41° ENE 21:05:03 10° N
USA 215 4.0 20:55:26 10° ENE 21:00:59 29° SE 21:06:30 10° S
CZ-2C R/B 4.5 20:57:52 10° N 21:02:36 33° WNW 21:07:15 10° SW
Cosmos 2237 Rocket 2.6 20:57:36 10° S 21:02:55 42° ESE 21:08:16 10° NE
COSMOS 2428 2.9 20:57:23 10° SSW 21:03:02 78° WNW 21:08:46 10° NNE
Cosmos 2360 Rocket 4.5 20:58:38 10° WSW 21:03:26 28° NW 21:08:16 10° N
Cosmos 1538 Rocket 4.2 20:58:20 10° SSW 21:03:41 79° WNW 21:09:02 10° NNE
Resurs 01 Rocket 2.9 21:06:42 10° SSW 21:10:48 37° W 21:14:55 10° NNW
IGS 5A 3.5 21:10:00 16° S 21:13:16 83° WSW 21:17:27 10° NNW
SAR-Lupe-2 3.6 21:10:58 10° NNE 21:14:31 58° E 21:16:56 19° S
Cosmos 2184 Rocket 4.2 21:09:30 14° SSE 21:14:41 52° E 21:20:47 10° NNE
Cosmos 1943 Rocket 4.4 21:21:25 10° N 21:24:25 14° NE 21:27:23 10° ENE
BREEZE-M (TANK) 4.1 21:21:20 10° SSW 21:25:16 50° SE 21:39:39 10° ENE
Cosmos 1892 3.2 21:23:56 28° SE 21:25:22 40° E 21:28:57 10° NNE
Cosmos 2344 3.8 21:20:48 10° S 21:27:58 46° ESE 21:35:16 10° NE
Cosmos 2333 Rocket 3.5 21:22:48 10° SW 21:28:12 43° WNW 21:33:40 10° NNE
Cosmos 2112 Rocket 4.2 21:28:34 17° S 21:32:29 54° ESE 21:37:42 10° NNE
USA 245 4.2 21:30:37 17° SSW 21:33:16 46° W 21:37:41 10° NNW
Cosmos 1869 3.3 21:29:30 10° N 21:33:32 76° E 21:35:28 30° SSE
Spot 2 Rocket 4.1 21:30:33 14° S 21:34:45 52° W 21:39:45 10° NNW
Cosmos 1842 Rocket 3.5 21:32:58 10° N 21:37:19 81° W 21:39:45 25° S
DELTA 2 R/B (1) 3.6 21:33:52 10° WSW 21:39:20 58° S 21:43:27 18° ESE
Cosmos 2058 2.9 21:37:55 30° SSE 21:39:47 61° E 21:43:52 10° NNE
Cosmos 2278 Rocket 2.2 21:34:45 10° NNW 21:40:27 82° WSW 21:43:46 26° SSE
NOSS 0 Rocket 4.1 21:39:54 10° SSW 21:46:02 73° WNW 21:52:14 10° NNE
Cosmos 44 3.2 21:44:54 30° S 21:46:40 49° ESE 21:50:55 10° NE
Cosmos 2056 Rocket 4.1 21:43:02 10° N 21:48:19 48° ENE 21:50:54 27° SE
SL-16 R/B 2.8 21:49:05 29° SE 21:51:02 38° ESE 21:56:13 10° NE
Elektron 1 4.0 21:49:11 13° SW 21:51:48 87° NW 21:56:21 10° NE
Nadezhda 3 Rocket 4.1 21:45:32 10° N 21:51:52 63° E 21:55:11 29° SSE
Cosmos 2154 Rocket 4.0 21:51:39 25° S 21:55:26 70° E 22:01:38 10° NNE
Cosmos 2074 Rocket 4.1 21:50:35 14° SSW 21:56:04 74° W 22:02:18 10° N
In-Cosmos 22 Rocket 4.1 21:53:15 20° SSW 21:57:02 83° W 22:02:25 10° N
CARTOSAT-1 4.1 21:56:37 27° SSW 21:58:44 53° W 22:03:00 10° NNW
Cosmos 1680 Rocket 3.6 21:54:07 11° SSW 21:59:11 77° WNW 22:04:33 10° NNE
SPOT 5 3.1 21:57:56 27° S 22:00:32 64° W 22:05:13 10° NNW
Cosmos 1825 2.6 22:01:48 42° ESE 22:02:08 43° E 22:05:45 10° NNE
Cosmos 2221 3.2 22:00:04 10° NNW 22:04:17 48° W 22:06:23 26° SSW
Cosmos 2341 Rocket 4.4 22:03:39 31° SE 22:06:10 47° E 22:12:03 10° NNE
COSMOS 2455 4.0 22:03:39 10° NNW 22:09:06 34° NE 22:12:49 18° E
ATLAS CENTAUR R/B 3.7 22:09:30 10° W 22:10:12 10° WSW 22:10:55 10° WSW
Cosmos 371 Rocket 4.3 22:06:31 10° N 22:10:57 34° ENE 22:12:39 27° E
NOSS 3-4 (A) 3.9 22:05:27 10° NW 22:12:31 77° WSW 22:16:34 31° SSE
NOSS 3-4 (C) 3.9 22:05:33 10° NW 22:12:38 78° WSW 22:16:41 31° SSE
MTI 3.6 22:13:33 10° NNE 22:16:31 82° N 22:16:31 82° N
Cosmos 1295 Rocket 4.4 22:17:06 30° S 22:20:17 85° E 22:26:25 10° N
GP-B 4.4 22:18:22 10° NNE 22:22:03 25° E 22:22:24 25° E
Gbstr 26 Del rocket 2.4 22:18:23 10° SW 22:22:07 85° SE 22:26:00 10° ENE
GEOS 3 Rocket 4.3 22:17:01 10° NNE 22:22:17 57° NW 22:27:33 10° WSW
Aureole 2 Rocket 2.5 22:21:39 10° NNW 22:24:08 58° N 22:24:08 58° N
Cosmos 2369 Rocket 3.7 22:24:04 10° N 22:28:47 27° NE 22:31:45 17° E
Cosmos 2151 2.8 22:29:12 58° S 22:30:00 83° E 22:34:16 10° N
Cosmos 1408 3.3 22:30:14 39° WSW 22:31:00 46° W 22:34:28 10° N
Terra 2.6 22:29:14 30° SSW 22:31:03 43° W 22:35:36 10° NNW
MOS 1-B Rocket 4.4 22:24:06 10° NNE 22:31:08 53° E 22:33:20 37° SSE
Cosmos 1328 Rocket 4.3 22:27:21 10° N 22:31:23 37° ENE 22:31:54 36° E
Lacrosse 5 rocket 3.2 22:28:10 10° NNW 22:31:34 25° NNE 22:33:47 16° ENE
Cosmos 1766 Rocket 3.6 22:32:48 53° ESE 22:33:14 56° E 22:37:35 10° NNE
Cosmos 962 Rocket 4.5 22:32:14 35° S 22:35:11 87° E 22:41:36 10° N
Cosmos 1624 Rocket 4.1 22:32:24 10° NNW 22:37:34 64° WSW 22:39:04 44° SSW
ATLAS 2AS CENTAUR R/B 3.1 22:32:41 10° NW 22:39:57 56° WSW 22:42:43 36° S
Meteor 2-3 Rocket 4.2 22:40:15 39° SE 22:41:28 44° E 22:46:52 10° NNE
CZ-4C R/B 3.9 22:37:42 10° NNW 22:44:19 40° NE 22:50:52 14° ESE
USA 215 3.3 22:37:51 10° NE 22:44:26 83° NW 22:50:59 10° SW
Cosmos 2237 Rocket 3.9 22:42:01 10° WSW 22:47:05 32° NW 22:52:10 10° N
APEX 4.1 22:48:49 10° NNW 22:50:36 33° N 22:50:36 33° N
Okean 3 Rocket 3.6 22:52:12 59° SSW 22:52:58 76° W 22:57:24 10° N
IRIDIUM 106 4.4 22:53:00 51° SE 22:54:01 61° E 22:59:10 10° N
Cosmos 44 Rocket 4.4 22:55:46 27° E 22:55:46 27° E 22:58:50 10° NE
ISS -0.9 23:05:32 11° ENE 23:05:32 11° ENE 23:05:38 10° ENE
EO 1 Del DPAF 3.2 23:01:00 10° N 23:04:35 78° NNW 23:04:35 78° NNW
BREEZE-M DEB (TANK) 4.2 23:02:31 10° WNW 23:04:46 19° W 23:04:46 19° W
Cosmos 1151 Rocket 2.8 23:01:26 10° N 23:05:46 85° W 23:05:58 80° SSW
BREEZE-M DEB (TANK) 2.9 23:07:00 28° WSW 23:08:43 74° NNW 23:17:19 10° ENE
Cosmos 1943 Rocket 2.2 23:03:32 10° NNW 23:09:13 73° ENE 23:10:41 50° SE
Cosmos 864 Rocket 4.4 23:08:32 47° S 23:10:30 84° E 23:16:50 10° N
Cosmos 2228 Rocket 4.1 23:07:54 10° N 23:12:06 34° ENE 23:12:32 34° E
Cosmos 1606 3.2 23:09:13 10° NNW 23:12:54 52° W 23:12:54 52° W
Thor Agena Rocket 3.7 23:08:53 10° N 23:13:56 66° WNW 23:15:23 45° SW
Cosmos 468 4.4 23:13:56 62° SSE 23:14:41 73° ESE 23:19:56 10° NNE
USA 267 3.3 23:12:07 29° ESE 23:15:47 77° NE 23:22:22 10° NW
Cosmos 1420 Rocket 4.3 23:11:58 10° NNW 23:17:08 55° WSW 23:18:00 49° SW
Meteor 2-12 Rocket 4.4 23:15:48 45° SSW 23:17:48 80° W 23:23:59 10° N
Cosmos 1408 Rocket 3.5 23:19:41 74° WSW 23:19:56 77° W 23:24:23 10° N
Cosmos 2366 rocket 4.0 23:18:37 44° SSW 23:20:46 80° W 23:27:09 10° N
Cosmos 2218 Rocket 4.1 23:20:06 43° SSW 23:22:20 75° W 23:28:38 10° N
Cosmos 1943 3.5 23:23:20 47° ESE 23:23:48 48° ESE 23:29:14 10° NE
Cosmos 332 Rocket 3.7 23:19:11 10° NNW 23:23:58 70° WSW 23:24:18 67° SW
Cosmos 1346 Rocket 2.9 23:25:21 72° N 23:25:21 72° N 23:28:55 10° N
Cosmos 1933 3.8 23:21:16 10° NNW 23:25:03 52° W 23:25:03 52° W
DELTA 2 R/B (1) 4.2 23:20:06 10° W 23:24:11 40° SW 23:24:11 40° SW
Lacrosse 5 4.0 23:28:00 13° E 23:28:00 13° E 23:29:04 10° E
BREEZE-M DEB (TANK) 3.6 23:23:44 10° WNW 23:25:11 23° WNW 23:25:11 23° WNW
Cosmos 1821 Rocket 4.3 23:26:32 42° SE 23:27:50 48° E 23:33:39 10° NNE
Cosmos 1782 3.0 23:25:14 10° N 23:28:48 63° NE 23:28:48 63° NE
Cosmos 1500 Rocket 3.6 23:31:01 67° E 23:31:01 67° E 23:35:15 10° NNE
Cosmos 1340 3.7 23:34:47 37° WNW 23:34:47 37° WNW 23:38:16 10° N
SL-16 R/B 3.6 23:30:54 14° WSW 23:35:09 35° NW 23:40:21 10° N
Cosmos 1048 Rocket 4.0 23:36:08 57° SW 23:37:12 77° WNW 23:42:29 10° NNE
Nimbus 7 Rocket 4.4 23:32:45 10° NNE 23:38:40 77° WNW 23:40:23 48° SW
ALOS 2 2.7 23:42:33 65° W 23:42:33 65° W 23:46:53 10° NNW
Cosmos 1633 3.4 23:47:54 46° NW 23:47:54 46° NW 23:50:49 10° N
Cosmos 1805 Rocket 4.1 23:49:06 48° E 23:49:06 48° E 23:53:03 10° NNE
Cosmos 405 4.2 23:49:37 10° NNW 23:52:07 39° NW 23:52:07 39° NW
